Weather History for Beatrice, NE

Change the Weather History Date:

Sunday, January 30, 2005

  Actual Average Record
Temperature  
Mean Temperature 35 °F -  
Max Temperature 37 °F 36 °F 68 °F (2012)
Min Temperature 33 °F 16 °F -11 °F (1966)
Degree Days  
Heating Degree Days 30    
Moisture  
Dew Point 31 °F    
Average Humidity 87    
Maximum Humidity 93    
Minimum Humidity 75    
Precipitation  
Precipitation 0.00 in - - ()
Sea Level Pressure  
Sea Level Pressure 30.19 in    
Wind  
Wind Speed 2 mph (ESE)    
Max Wind Speed 5 mph    
Max Gust Speed -    
Visibility 4 miles    
Events      
Averages and records for this station are not official NWS values.
T = Trace of Precipitation, MM = Missing Value Source: NWS Daily Summary

Daily Weather History Graph

Daily Weather History Graph

Search for Another Location

Airport:

Trip Planner

Search our weather history database for the weather conditions in past years. The results will help you decide how hot, cold, wet, or windy it might be!

Date:

Astronomy

Jan. 30, 2005 Rise Set
Actual Time 7:37 AM CST 5:43 PM CST
Civil Twilight 7:08 AM CST 6:12 PM CST
Nautical Twilight 6:36 AM CST 6:44 PM CST
Astronomical Twilight 6:04 AM CST 7:17 PM CST
Moon 11:05 PM CST (1/30) 10:14 AM CST (1/30)
Length of Visible Light 11h 03m
Length of Day
10h 05m
Waning Gibbous, 75% of the Moon is Illuminated
Jan 30
Waning Gibbous
Feb 2
Last Quarter
Feb 8
New
Feb 15
First Quarter
Feb 23
Full

Hourly Weather History & Observations

Time (CST) Temp. Windchill Dew Point Humidity Pressure Visibility Wind Dir Wind Speed Gust Speed Precip Events Conditions
12:11 AM 33.8 °F 30.8 °F 32.0 °F 93% 30.20 in 4.0 mi East 3.5 mph - N/A   Overcast
12:34 AM 33.8 °F 30.8 °F 32.0 °F 93% 30.21 in 4.0 mi East 3.5 mph - N/A   Overcast
12:51 AM 33.8 °F 30.8 °F 32.0 °F 93% 30.20 in 4.0 mi East 3.5 mph - N/A   Overcast
1:11 AM 33.8 °F 30.8 °F 32.0 °F 93% 30.20 in 4.0 mi East 3.5 mph - N/A   Overcast
1:31 AM 33.8 °F 30.8 °F 32.0 °F 93% 30.20 in 4.0 mi East 3.5 mph - N/A   Overcast
1:52 AM 33.8 °F 30.8 °F 32.0 °F 93% 30.19 in 4.0 mi ESE 3.5 mph - N/A   Overcast
2:31 AM 33.8 °F 30.8 °F 30.2 °F 87% 30.20 in 4.0 mi ESE 3.5 mph - N/A   Overcast
2:51 AM 33.8 °F - 32.0 °F 93% 30.20 in 4.0 mi Calm Calm - N/A   Overcast
3:11 AM 33.8 °F - 32.0 °F 93% 30.20 in 4.0 mi Calm Calm - N/A   Overcast
3:32 AM 33.8 °F - 32.0 °F 93% 30.19 in 4.0 mi Calm Calm - N/A   Overcast
3:51 AM 33.8 °F - 32.0 °F 93% 30.19 in 4.0 mi Calm Calm - N/A   Overcast
4:12 AM 33.8 °F 30.8 °F 32.0 °F 93% 30.19 in 4.0 mi East 3.5 mph - N/A   Overcast
4:32 AM 33.8 °F - 32.0 °F 93% 30.18 in 3.0 mi Calm Calm - N/A   Overcast
4:52 AM 33.8 °F - 32.0 °F 93% 30.19 in 3.0 mi Calm Calm - N/A   Overcast
5:12 AM 33.8 °F - 32.0 °F 93% 30.19 in 3.0 mi Calm Calm - N/A   Overcast
5:31 AM 33.8 °F - 32.0 °F 93% 30.19 in 3.0 mi Calm Calm - N/A   Overcast
5:52 AM 33.8 °F 30.8 °F 32.0 °F 93% 30.18 in 3.0 mi East 3.5 mph - N/A   Overcast
6:12 AM 33.8 °F 30.8 °F 32.0 °F 93% 30.19 in 3.0 mi East 3.5 mph - N/A   Overcast
6:32 AM 33.8 °F - 32.0 °F 93% 30.19 in 3.0 mi Calm Calm - N/A   Overcast
7:52 AM 33.8 °F - 30.2 °F 87% 30.21 in 3.0 mi Calm Calm - N/A   Overcast
8:12 AM 33.8 °F 30.8 °F 30.2 °F 87% 30.21 in 2.5 mi ESE 3.5 mph - N/A   Overcast
8:31 AM 33.8 °F - 30.2 °F 87% 30.22 in 2.5 mi Calm Calm - N/A   Overcast
8:51 AM 33.8 °F 30.8 °F 30.2 °F 87% 30.22 in 3.0 mi ESE 3.5 mph - N/A   Overcast
9:11 AM 33.8 °F 30.8 °F 30.2 °F 87% 30.22 in 3.0 mi SE 3.5 mph - N/A   Overcast
9:31 AM 33.8 °F 30.8 °F 30.2 °F 87% 30.22 in 3.0 mi ESE 3.5 mph - N/A   Overcast
9:52 AM 33.8 °F 30.8 °F 30.2 °F 87% 30.22 in 3.0 mi ESE 3.5 mph - N/A   Overcast
10:12 AM 33.8 °F - 30.2 °F 87% 30.22 in 3.0 mi Calm Calm - N/A   Overcast
10:31 AM 33.8 °F - 30.2 °F 87% 30.22 in 3.0 mi Calm Calm - N/A   Overcast
11:12 AM 33.8 °F - 30.2 °F 87% 30.23 in 4.0 mi Calm Calm - N/A   Overcast
11:32 AM 33.8 °F - 30.2 °F 87% 30.22 in 4.0 mi Calm Calm - N/A   Overcast
11:52 AM 35.6 °F - 30.2 °F 81% 30.22 in 4.0 mi Calm Calm - N/A   Haze
12:12 PM 35.6 °F - 30.2 °F 81% 30.21 in 4.0 mi Calm Calm - N/A   Overcast
12:31 PM 35.6 °F - 30.2 °F 81% 30.20 in 4.0 mi Calm Calm - N/A   Overcast
12:51 PM 35.6 °F 31.7 °F 30.2 °F 81% 30.18 in 4.0 mi SSE 4.6 mph - N/A   Haze
1:11 PM 35.6 °F - 30.2 °F 81% 30.18 in 4.0 mi Calm Calm - N/A   Haze
1:32 PM 37.4 °F 34.9 °F 32.0 °F 81% 30.16 in 4.0 mi SSE 3.5 mph - N/A   Haze
1:52 PM 37.4 °F - 30.2 °F 75% 30.16 in 4.0 mi Calm Calm - N/A   Haze
2:31 PM 37.4 °F - 30.2 °F 75% 30.15 in 4.0 mi Calm Calm - N/A   Haze
3:12 PM 37.4 °F - 30.2 °F 75% 30.15 in 4.0 mi Calm Calm - N/A   Haze
3:31 PM 37.4 °F - 32.0 °F 81% 30.15 in 4.0 mi Calm Calm - N/A   Haze
3:52 PM 37.4 °F 34.9 °F 32.0 °F 81% 30.15 in 5.0 mi SSE 3.5 mph - N/A   Haze
4:11 PM 37.4 °F - 32.0 °F 81% 30.16 in 4.0 mi Calm Calm - N/A   Haze
4:31 PM 37.4 °F 34.9 °F 30.2 °F 75% 30.16 in 5.0 mi SE 3.5 mph - N/A   Haze
4:51 PM 37.4 °F - 30.2 °F 75% 30.15 in 5.0 mi Calm Calm - N/A   Haze
5:11 PM 37.4 °F - 30.2 °F 75% 30.16 in 5.0 mi Calm Calm - N/A   Haze
5:31 PM 35.6 °F 31.7 °F 30.2 °F 81% 30.17 in 5.0 mi SSE 4.6 mph - N/A   Haze
5:51 PM 35.6 °F 32.8 °F 32.0 °F 87% 30.17 in 5.0 mi SSE 3.5 mph - N/A   Overcast
6:11 PM 35.6 °F 32.8 °F 32.0 °F 87% 30.17 in 5.0 mi SE 3.5 mph - N/A   Overcast
6:31 PM 35.6 °F 32.8 °F 32.0 °F 87% 30.17 in 5.0 mi SE 3.5 mph - N/A   Overcast
6:51 PM 35.6 °F 31.7 °F 32.0 °F 87% 30.18 in 5.0 mi SE 4.6 mph - N/A   Overcast
7:11 PM 35.6 °F 32.8 °F 32.0 °F 87% 30.18 in 4.0 mi ESE 3.5 mph - N/A   Overcast
7:33 PM 35.6 °F - 32.0 °F 87% 30.18 in 4.0 mi Calm Calm - N/A   Overcast
7:52 PM 33.8 °F - 32.0 °F 93% 30.18 in 3.0 mi Calm Calm - N/A   Overcast
8:12 PM 33.8 °F - 32.0 °F 93% 30.19 in 3.0 mi Calm Calm - N/A   Overcast
8:32 PM 33.8 °F - 32.0 °F 93% 30.19 in 3.0 mi Calm Calm - N/A   Overcast
8:52 PM 33.8 °F - 32.0 °F 93% 30.19 in 3.0 mi Calm Calm - N/A   Overcast
9:12 PM 33.8 °F - 33.8 °F 100% 30.19 in 3.0 mi Calm Calm - N/A   Overcast
9:31 PM 33.8 °F - 33.8 °F 100% 30.19 in 2.5 mi Calm Calm - N/A   Overcast
9:51 PM 33.8 °F - 33.8 °F 100% 30.19 in 2.5 mi Calm Calm - N/A   Overcast
10:14 PM 33.8 °F - 33.8 °F 100% 30.20 in 2.0 mi Calm Calm - N/A   Overcast
10:34 PM 33.8 °F - 33.8 °F 100% 30.19 in 1.8 mi Calm Calm - N/A   Overcast
10:55 PM 33.8 °F - 33.8 °F 100% 30.19 in 1.8 mi Calm Calm - N/A   Overcast
11:12 PM 33.8 °F - 33.8 °F 100% 30.20 in 1.2 mi Calm Calm - N/A   Light Drizzle
11:32 PM 33.8 °F - 33.8 °F 100% 30.20 in 1.2 mi Calm Calm - N/A Rain Light Rain
11:51 PM 33.8 °F - 33.8 °F 100% 30.20 in 1.0 mi Calm Calm - N/A   Drizzle